Flag for Peru Weather past 2 weeks in Trujillo, La Libertad, Peru

Now
75 °F

Passing clouds.


Feels Like: 77 °F
Forecast: N/A
Wind: 12 mph from Southeast

Location: Trujillo Airport

Current Time: Jan 27, 2015 at 4:39:47 PM

Latest Report: Jan 27, 2015 at 3:00 PM


Visibility: N/A

Pressure: 29.83 "Hg

Humidity: 74%

Dew point: 66 °F

Location of TrujilloLocation

Historic Weather in Trujillo — Graph

°F

Trujillo temperature yesterday

Maximum temperature yesterday: 75 °F (at 1:00 PM)
Minimum temperature yesterday: 64 °F (at 5:00 AM)
Average temperature yesterday: 70 °F

Past Weeks' High & Low Weather Summary

 TemperatureHumidityPressure
High77 °F (Jan 27, 10:00 AM)94% (Jan 15, 9:00 AM)30.01 "Hg (Jan 15, 9:00 AM)
Low64 °F (Jan 26, 5:00 AM)65% (Jan 13, 12:00 PM)29.77 "Hg (Jan 25, 4:00 PM)
Average70 °F81%29.90 "Hg
* Reported Jan 12 3:00 PM — Jan 27 3:00 PM, Trujillo, Weather by CustomWeather, © 2014

Note: Actual official high and low records may vary slightly from our data, if they occured in-between our weather recording intervals... More about our weather records

Advertising

Trujillo weather history for previous 24 hours

 ConditionsComfort  
Time TempWeatherWind HumidityBarometerVisibility
3:00 PM
Jan 27
75 °FPassing clouds.12 mph74%29.83 "HgN/A
2:00 PM77 °FPassing clouds.10 mph69%29.86 "HgN/A
1:00 PM77 °FScattered clouds.10 mph69%29.89 "HgN/A
12:00 PM75 °FSunny.10 mph74%29.89 "Hg10 mi
11:00 AM77 °FScattered clouds.7 mph69%29.92 "HgN/A
10:00 AM77 °FPassing clouds.7 mph69%29.92 "HgN/A
9:00 AM73 °FPartly sunny.7 mph78%29.95 "Hg6 mi
8:00 AM72 °FPartly sunny.5 mph83%29.92 "Hg5 mi
7:00 AM70 °FPartly sunny.5 mph88%29.89 "Hg4 mi
6:00 AM70 °FPassing clouds.5 mph88%29.89 "Hg6 mi
5:00 AM70 °FMostly cloudy.6 mph88%29.89 "Hg4 mi
4:00 AM70 °FMostly cloudy.6 mph88%29.89 "Hg4 mi
3:00 AM70 °FPartly cloudy.6 mph88%29.89 "Hg6 mi
2:00 AM70 °FPassing clouds.6 mph83%29.89 "Hg6 mi
1:00 AM70 °FPartly cloudy.6 mph83%29.92 "Hg4 mi
12:00 AM70 °FPartly cloudy.5 mph83%29.95 "Hg6 mi
11:00 PM
Jan 26
70 °FPassing clouds.6 mph83%29.95 "Hg6 mi
10:00 PM70 °FPassing clouds.6 mph88%29.92 "Hg5 mi
9:00 PM70 °FPassing clouds.7 mph83%29.83 "HgN/A
8:00 PM70 °FPassing clouds.7 mph88%29.86 "Hg6 mi
7:00 PM72 °FPassing clouds.7 mph78%29.83 "HgN/A
4:00 PM73 °FPassing clouds.8 mph74%29.80 "HgN/A
Weather by CustomWeather, © 2014

See weather overviewHow to use our weather pages